This is the latest recevied weather packets stored in our database for station/object N7CW. If no packets are shown the sender has not sent any weather packets the latest 10 day(s).
| Time | Temp. | Humidity | Pressure | Rain* | Wind** | Luminosity | Snow |
|---|---|---|---|---|---|---|---|
| 1777703000 | 10° C | 32% | 1018.8 hPa | 0 mm | - | 0 W/m² | - |
| 1777702698 | 10.56° C | 32% | 1019 hPa | 0 mm | - | 0 W/m² | - |
| 1777702396 | 11.11° C | 31% | 1018.7 hPa | 0 mm | - | 0 W/m² | - |
| 1777702091 | 11.67° C | 30% | 1018.7 hPa | 0 mm | - | 0 W/m² | - |
| 1777701786 | 12.22° C | 29% | 1018.7 hPa | 0 mm | - | 0 W/m² | - |
| 1777701485 | 11.11° C | 31% | 1018.5 hPa | 0 mm | - | 0 W/m² | - |
| 1777701182 | 11.11° C | 30% | 1018.5 hPa | 0 mm | - | 0 W/m² | - |
| 1777700881 | 12.22° C | 29% | 1018.8 hPa | 0 mm | - | 0 W/m² | - |
| 1777700579 | 13.33° C | 28% | 1018.7 hPa | 0 mm | - | 0 W/m² | - |
| 1777700276 | 13.33° C | 28% | 1018.7 hPa | 0 mm | - | 0 W/m² | - |
| 1777699973 | 13.89° C | 27% | 1018.4 hPa | 0 mm | - | 0 W/m² | - |
| 1777699671 | 13.89° C | 26% | 1018.4 hPa | 0 mm | - | 0 W/m² | - |
| 1777699369 | 13.89° C | 27% | 1018.5 hPa | 0 mm | - | 0 W/m² | - |
| 1777699066 | 14.44° C | 26% | 1018.5 hPa | 0 mm | - | 0 W/m² | - |
| 1777698765 | 14.44° C | 26% | 1018.4 hPa | 0 mm | - | 0 W/m² | - |
| 1777698461 | 14.44° C | 26% | 1018.2 hPa | 0 mm | - | 0 W/m² | - |
| 1777698156 | 14.44° C | 27% | 1018.4 hPa | 0 mm | - | 0 W/m² | - |
| 1777697854 | 13.89° C | 27% | 1018.1 hPa | 0 mm | - | 0 W/m² | - |
| 1777697551 | 14.44° C | 27% | 1018.1 hPa | 0 mm | - | 0 W/m² | - |
| 1777697248 | 14.44° C | 27% | 1017.9 hPa | 0 mm | - | 0 W/m² | - |
| 1777696944 | 14.44° C | 26% | 1017.9 hPa | 0 mm | - | 0 W/m² | - |
| 1777696641 | 15° C | 26% | 1018.1 hPa | 0 mm | - | 0 W/m² | - |
| 1777696339 | 15° C | 26% | 1018 hPa | 0 mm | - | 0 W/m² | - |
| 1777696038 | 15° C | 26% | 1017.9 hPa | 0 mm | - | 0 W/m² | - |
| 1777695736 | 15° C | 26% | 1018 hPa | 0 mm | - | 0 W/m² | - |
* Rain latest hour (hover to see other rain measurements)
** Current wind speed in m/s (hover to see current wind gust speed)